| time (UTC) | temp C | wind direction | speed KPH | gust KPH | rain 1hr cm | rain 24hr cm | rain mn cm | humidity % | barometer mb |
| 20260504100614 | 35 | 45 | 3.2 | 3.2 | 0.00 | 0.00 | 0.00 | 55 | 1003.0 |
| 20260504100114 | 35 | 61 | 1.6 | 1.6 | 0.00 | 0.00 | 0.00 | 56 | 1003.0 |
| 20260504090114 | 35 | 47 | 4.8 | 8.0 | 0.00 | 0.00 | 0.00 | 57 | 1004.0 |
| 20260504081615 | 33 | 42 | 8.0 | 9.7 | 0.00 | 0.00 | 0.00 | 59 | 1005.0 |
| 20260504081115 | 34 | 36 | 6.4 | 9.7 | 0.00 | 0.00 | 0.00 | 59 | 1005.0 |
| 20260504080615 | 35 | 29 | 4.8 | 4.8 | 0.00 | 0.00 | 0.00 | 57 | 1005.0 |
| 20260504080115 | 35 | 57 | 4.8 | 8.0 | 0.00 | 0.00 | 0.00 | 57 | 1005.0 |
| 20260504070114 | 34 | 64 | 1.6 | 1.6 | 0.00 | 0.00 | 0.00 | 53 | 1007.0 |
| 20260504060114 | 32 | 228 | 6.4 | 8.0 | 0.00 | 0.00 | 0.00 | 59 | 1008.0 |
| 20260504050614 | 32 | 216 | 9.7 | 11.3 | 0.00 | 0.00 | 0.00 | 60 | 1008.0 |
| 20260504050114 | 32 | 257 | 8.0 | 9.7 | 0.00 | 0.00 | 0.00 | 58 | 1009.0 |
| 20260504045614 | 31 | 154 | 6.4 | 8.0 | 0.00 | 0.00 | 0.00 | 60 | 1008.0 |
| 20260504045114 | 31 | 236 | 6.4 | 9.7 | 0.00 | 0.00 | 0.00 | 61 | 1009.0 |
| 20260504044614 | 31 | 209 | 8.0 | 12.9 | 0.00 | 0.00 | 0.00 | 60 | 1009.0 |
| 20260504044115 | 32 | 59 | 4.8 | 8.0 | 0.00 | 0.00 | 0.00 | 59 | 1009.0 |
| 20260504043618 | 31 | 84 | 1.6 | 1.6 | 0.00 | 0.00 | 0.00 | 60 | 1009.0 |
| 20260504043114 | 32 | 278 | 6.4 | 8.0 | 0.00 | 0.00 | 0.00 | 59 | 1009.0 |
| 20260504042614 | 32 | 64 | 3.2 | 3.2 | 0.00 | 0.00 | 0.00 | 59 | 1009.0 |
| 20260504042114 | 31 | 277 | 6.4 | 9.7 | 0.00 | 0.00 | 0.00 | 60 | 1009.0 |
| 20260504041615 | 31 | 244 | 6.4 | 8.0 | 0.00 | 0.00 | 0.00 | 60 | 1009.0 |
| 20260504041114 | 31 | 69 | 4.8 | 9.7 | 0.00 | 0.00 | 0.00 | 62 | 1009.0 |
| 20260504040614 | 31 | 166 | 6.4 | 8.0 | 0.00 | 0.00 | 0.00 | 62 | 1009.0 |
| 20260504040114 | 31 | 70 | 4.8 | 8.0 | 0.00 | 0.00 | 0.00 | 61 | 1009.0 |
| 20260504035614 | 31 | 59 | 3.2 | 4.8 | 0.00 | 0.00 | 0.00 | 60 | 1009.0 |
| 20260504035114 | 31 | 207 | 8.0 | 12.9 | 0.00 | 0.00 | 0.00 | 59 | 1009.0 |
| 20260504034614 | 31 | 59 | 3.2 | 4.8 | 0.00 | 0.00 | 0.00 | 58 | 1009.0 |
| 20260504034114 | 32 | 105 | 3.2 | 3.2 | 0.00 | 0.00 | 0.00 | 55 | 1009.0 |
| 20260504033615 | 32 | 164 | 8.0 | 9.7 | 0.00 | 0.00 | 0.00 | 55 | 1009.0 |
| 20260504032635 | 31 | 337 | 4.8 | 4.8 | 0.00 | 0.00 | 0.00 | 56 | 1008.0 |
| 20260504032114 | 31 | 111 | 4.8 | 4.8 | 0.00 | 0.00 | 0.00 | 59 | 1008.0 |
| 20260504031614 | 31 | 110 | 3.2 | 3.2 | 0.00 | 0.00 | 0.00 | 56 | 1008.0 |
| 20260504031115 | 32 | 52 | 1.6 | 1.6 | 0.00 | 0.00 | 0.00 | 54 | 1008.0 |
| 20260504030614 | 32 | 52 | 0.0 | 0.0 | 0.00 | 0.00 | 0.00 | 53 | 1008.0 |
| 20260504030115 | 31 | 52 | 0.0 | 1.6 | 0.00 | 0.00 | 0.00 | 55 | 1008.0 |
| 20260504025615 | 31 | 52 | 0.0 | 1.6 | 0.00 | 0.00 | 0.00 | 56 | 1008.0 |
| 20260504025114 | 31 | 52 | 0.0 | 0.0 | 0.00 | 0.00 | 0.00 | 57 | 1008.0 |
| 20260504024614 | 31 | 52 | 1.6 | 1.6 | 0.00 | 0.00 | 0.00 | 59 | 1007.0 |
| 20260504024114 | 30 | 53 | 1.6 | 1.6 | 0.00 | 0.00 | 0.00 | 61 | 1007.0 |
| 20260504023614 | 30 | 49 | 3.2 | 3.2 | 0.00 | 0.00 | 0.00 | 62 | 1007.0 |
| 20260504023115 | 30 | 67 | 8.0 | 8.0 | 0.00 | 0.00 | 0.00 | 62 | 1007.0 |
| 20260504022614 | 29 | 72 | 1.6 | 3.2 | 0.00 | 0.00 | 0.00 | 63 | 1007.0 |
| 20260504022114 | 29 | 71 | 3.2 | 3.2 | 0.00 | 0.00 | 0.00 | 65 | 1007.0 |
| 20260504021614 | 29 | 68 | 3.2 | 3.2 | 0.00 | 0.00 | 0.00 | 64 | 1007.0 |
| 20260504021115 | 28 | 72 | 1.6 | 3.2 | 0.00 | 0.00 | 0.00 | 66 | 1007.0 |
| 20260504020614 | 28 | 57 | 0.0 | 0.0 | 0.00 | 0.00 | 0.00 | 69 | 1007.0 |
| 20260504020114 | 28 | 58 | 3.2 | 3.2 | 0.00 | 0.00 | 0.00 | 69 | 1007.0 |
| 20260504015615 | 27 | 61 | 1.6 | 3.2 | 0.00 | 0.00 | 0.00 | 70 | 1007.0 |
| 20260504015114 | 27 | 74 | 4.8 | 4.8 | 0.00 | 0.00 | 0.00 | 71 | 1007.0 |
| 20260504014615 | 27 | 72 | 1.6 | 1.6 | 0.00 | 0.00 | 0.00 | 71 | 1007.0 |
| 20260504014114 | 27 | 71 | 1.6 | 1.6 | 0.00 | 0.00 | 0.00 | 72 | 1007.0 |
| 20260504013614 | 27 | 69 | 1.6 | 1.6 | 0.00 | 0.00 | 0.00 | 71 | 1007.0 |
| 20260504013115 | 27 | 70 | 0.0 | 0.0 | 0.00 | 0.00 | 0.00 | 71 | 1007.0 |
| 20260504012615 | 27 | 70 | 1.6 | 1.6 | 0.00 | 0.00 | 0.00 | 71 | 1007.0 |
| 20260504012114 | 27 | 69 | 1.6 | 1.6 | 0.00 | 0.00 | 0.00 | 72 | 1007.0 |
| 20260504011614 | 27 | 68 | 0.0 | 0.0 | 0.00 | 0.00 | 0.00 | 72 | 1007.0 |
| 20260504011115 | 27 | 68 | 1.6 | 1.6 | 0.00 | 0.00 | 0.00 | 71 | 1006.0 |
| 20260504010614 | 26 | 69 | 1.6 | 1.6 | 0.00 | 0.00 | 0.00 | 71 | 1006.0 |
| 20260504010114 | 26 | 65 | 0.0 | 1.6 | 0.00 | 0.00 | 0.00 | 72 | 1006.0 |
| 20260504005614 | 26 | 58 | 1.6 | 3.2 | 0.00 | 0.00 | 0.00 | 73 | 1006.0 |
| 20260504005114 | 26 | 58 | 3.2 | 3.2 | 0.00 | 0.00 | 0.00 | 73 | 1006.0 |
| 20260504004615 | 26 | 55 | 1.6 | 3.2 | 0.00 | 0.00 | 0.00 | 73 | 1006.0 |
| 20260504004114 | 26 | 59 | 0.0 | 1.6 | 0.00 | 0.00 | 0.00 | 74 | 1006.0 |
| 20260504003614 | 26 | 44 | 3.2 | 3.2 | 0.00 | 0.00 | 0.00 | 73 | 1006.0 |
| 20260504003114 | 26 | 52 | 1.6 | 3.2 | 0.00 | 0.00 | 0.00 | 72 | 1006.0 |
| 20260504002615 | 26 | 35 | 4.8 | 4.8 | 0.00 | 0.00 | 0.00 | 72 | 1006.0 |
| 20260504002115 | 26 | 41 | 1.6 | 1.6 | 0.00 | 0.00 | 0.00 | 72 | 1006.0 |
| 20260504001614 | 26 | 40 | 1.6 | 3.2 | 0.00 | 0.00 | 0.00 | 72 | 1006.0 |
| 20260504001114 | 26 | 42 | 3.2 | 3.2 | 0.00 | 0.00 | 0.00 | 72 | 1006.0 |
| 20260504000614 | 26 | 42 | 1.6 | 3.2 | 0.00 | 0.00 | 0.00 | 72 | 1006.0 |
| 20260504000114 | 26 | 42 | 1.6 | 3.2 | 0.00 | 0.00 | 0.00 | 71 | 1006.0 |
| 20260503235614 | 26 | 42 | 1.6 | 3.2 | 0.00 | 0.00 | 0.00 | 71 | 1006.0 |
| 20260503235115 | 26 | 42 | 3.2 | 3.2 | 0.00 | 0.00 | 0.00 | 71 | 1006.0 |
| 20260503234614 | 26 | 42 | 0.0 | 1.6 | 0.00 | 0.00 | 0.00 | 72 | 1006.0 |
| 20260503234114 | 26 | 43 | 0.0 | 0.0 | 0.00 | 0.00 | 0.00 | 72 | 1006.0 |
| 20260503233614 | 26 | 42 | 0.0 | 1.6 | 0.00 | 0.00 | 0.00 | 73 | 1006.0 |
| 20260503233115 | 26 | 42 | 1.6 | 1.6 | 0.00 | 0.00 | 0.00 | 74 | 1006.0 |
| 20260503232614 | 26 | 51 | 0.0 | 0.0 | 0.00 | 0.00 | 0.00 | 72 | 1006.0 |
| 20260503232114 | 26 | 51 | 0.0 | 0.0 | 0.00 | 0.00 | 0.00 | 72 | 1006.0 |
| 20260503231614 | 26 | 52 | 1.6 | 1.6 | 0.00 | 0.00 | 0.00 | 70 | 1005.0 |
| 20260503231114 | 26 | 53 | 0.0 | 0.0 | 0.00 | 0.00 | 0.00 | 71 | 1006.0 |
| 20260503230614 | 26 | 53 | 0.0 | 0.0 | 0.00 | 0.00 | 0.00 | 72 | 1006.0 |
| 20260503230114 | 26 | 53 | 0.0 | 1.6 | 0.00 | 0.00 | 0.00 | 73 | 1005.0 |
| 20260503225614 | 26 | 54 | 1.6 | 3.2 | 0.00 | 0.00 | 0.00 | 73 | 1005.0 |
| 20260503225115 | 26 | 57 | 1.6 | 1.6 | 0.00 | 0.00 | 0.00 | 73 | 1006.0 |
| 20260503224614 | 26 | 67 | 1.6 | 1.6 | 0.00 | 0.00 | 0.00 | 71 | 1005.0 |
| 20260503224115 | 26 | 74 | 0.0 | 0.0 | 0.00 | 0.00 | 0.00 | 72 | 1005.0 |
| 20260503223614 | 26 | 75 | 0.0 | 0.0 | 0.00 | 0.00 | 0.00 | 72 | 1005.0 |
| 20260503223114 | 26 | 80 | 1.6 | 1.6 | 0.00 | 0.00 | 0.00 | 71 | 1005.0 |
| 20260503222615 | 26 | 71 | 0.0 | 0.0 | 0.00 | 0.00 | 0.00 | 71 | 1005.0 |
| 20260503222114 | 26 | 80 | 1.6 | 1.6 | 0.00 | 0.00 | 0.00 | 71 | 1005.0 |
| 20260503221614 | 26 | 80 | 0.0 | 1.6 | 0.00 | 0.00 | 0.00 | 71 | 1005.0 |
| 20260503221115 | 26 | 81 | 1.6 | 1.6 | 0.00 | 0.00 | 0.00 | 70 | 1005.0 |
| 20260503220614 | 26 | 75 | 3.2 | 3.2 | 0.00 | 0.00 | 0.00 | 70 | 1005.0 |
| 20260503220114 | 27 | 73 | 0.0 | 0.0 | 0.00 | 0.00 | 0.00 | 69 | 1005.0 |
| 20260503215614 | 27 | 72 | 1.6 | 1.6 | 0.00 | 0.00 | 0.00 | 68 | 1005.0 |
| 20260503215114 | 27 | 86 | 1.6 | 1.6 | 0.00 | 0.00 | 0.00 | 66 | 1005.0 |
| 20260503214614 | 27 | 78 | 0.0 | 1.6 | 0.00 | 0.00 | 0.00 | 64 | 1005.0 |
| 20260503214114 | 27 | 67 | 0.0 | 0.0 | 0.00 | 0.00 | 0.00 | 63 | 1005.0 |
| 20260503213614 | 27 | 67 | 1.6 | 1.6 | 0.00 | 0.00 | 0.00 | 63 | 1005.0 |
| 20260503213115 | 27 | 68 | 0.0 | 0.0 | 0.00 | 0.00 | 0.00 | 64 | 1005.0 |
| 20260503212614 | 27 | 64 | 1.6 | 1.6 | 0.00 | 0.00 | 0.00 | 63 | 1005.0 |
| 20260503212115 | 27 | 67 | 1.6 | 1.6 | 0.00 | 0.00 | 0.00 | 64 | 1005.0 |
| 20260503211614 | 27 | 39 | 3.2 | 3.2 | 0.00 | 0.00 | 0.00 | 64 | 1005.0 |
| 20260503211114 | 27 | 58 | 0.0 | 0.0 | 0.00 | 0.00 | 0.00 | 64 | 1005.0 |
| 20260503210614 | 27 | 31 | 4.8 | 4.8 | 0.00 | 0.00 | 0.00 | 64 | 1005.0 |
| 20260503210115 | 27 | 50 | 3.2 | 3.2 | 0.00 | 0.00 | 0.00 | 64 | 1005.0 |
| 20260503205614 | 27 | 51 | 6.4 | 9.7 | 0.00 | 0.00 | 0.00 | 63 | 1005.0 |
| 20260503205119 | 27 | 61 | 1.6 | 3.2 | 0.00 | 0.00 | 0.00 | 63 | 1005.0 |
| 20260503204614 | 27 | 58 | 0.0 | 1.6 | 0.00 | 0.00 | 0.00 | 64 | 1005.0 |
| 20260503204114 | 27 | 46 | 1.6 | 3.2 | 0.00 | 0.00 | 0.00 | 64 | 1005.0 |
| 20260503203139 | 28 | 63 | 1.6 | 1.6 | 0.00 | 0.00 | 0.00 | 64 | 1005.0 |
| 20260503202614 | 28 | 43 | 6.4 | 9.7 | 0.00 | 0.00 | 0.00 | 63 | 1005.0 |
| 20260503202114 | 28 | 52 | 3.2 | 4.8 | 0.00 | 0.00 | 0.00 | 63 | 1005.0 |
| 20260503201614 | 28 | 63 | 8.0 | 11.3 | 0.00 | 0.00 | 0.00 | 63 | 1005.0 |
| 20260503201114 | 28 | 48 | 6.4 | 9.7 | 0.00 | 0.00 | 0.00 | 64 | 1005.0 |
| 20260503200614 | 28 | 42 | 8.0 | 9.7 | 0.00 | 0.00 | 0.00 | 64 | 1005.0 |
| 20260503200115 | 28 | 35 | 8.0 | 11.3 | 0.00 | 0.00 | 0.00 | 64 | 1005.0 |
| 20260503195615 | 28 | 43 | 8.0 | 9.7 | 0.00 | 0.00 | 0.00 | 67 | 1005.0 |
| 20260503195114 | 28 | 68 | 8.0 | 11.3 | 0.00 | 0.00 | 0.00 | 72 | 1005.0 |
| 20260503194615 | 28 | 52 | 3.2 | 3.2 | 0.00 | 0.00 | 0.00 | 74 | 1006.0 |
| 20260503194114 | 28 | 57 | 1.6 | 1.6 | 0.00 | 0.00 | 0.00 | 73 | 1006.0 |
| 20260503193616 | 28 | 70 | 1.6 | 3.2 | 0.00 | 0.00 | 0.00 | 73 | 1006.0 |
| 20260503193114 | 29 | 76 | 0.0 | 0.0 | 0.00 | 0.00 | 0.00 | 72 | 1006.0 |
| 20260503192614 | 29 | 79 | 1.6 | 3.2 | 0.00 | 0.00 | 0.00 | 71 | 1006.0 |
| 20260503192115 | 29 | 74 | 1.6 | 1.6 | 0.00 | 0.00 | 0.00 | 70 | 1006.0 |
| 20260503191615 | 29 | 71 | 0.0 | 0.0 | 0.00 | 0.00 | 0.00 | 70 | 1006.0 |
| 20260503191114 | 29 | 72 | 0.0 | 0.0 | 0.00 | 0.00 | 0.00 | 70 | 1006.0 |
| 20260503190614 | 30 | 52 | 3.2 | 3.2 | 0.00 | 0.00 | 0.00 | 69 | 1006.0 |
| 20260503190114 | 30 | 62 | 0.0 | 0.0 | 0.00 | 0.00 | 0.00 | 68 | 1006.0 |
| 20260503185614 | 30 | 57 | 1.6 | 3.2 | 0.00 | 0.00 | 0.00 | 67 | 1006.0 |
| 20260503185114 | 30 | 56 | 0.0 | 0.0 | 0.00 | 0.00 | 0.00 | 67 | 1006.0 |
| 20260503184614 | 30 | 54 | 1.6 | 1.6 | 0.00 | 0.00 | 0.00 | 67 | 1006.0 |
| 20260503184115 | 30 | 6 | 4.8 | 4.8 | 0.00 | 0.00 | 0.00 | 66 | 1006.0 |
| 20260503183614 | 30 | 37 | 6.4 | 9.7 | 0.00 | 0.00 | 0.00 | 66 | 1006.0 |
| 20260503183114 | 30 | 42 | 4.8 | 8.0 | 0.00 | 0.00 | 0.05 | 65 | 1006.0 |
| 20260503182614 | 29 | 48 | 4.8 | 8.0 | 0.00 | 0.00 | 0.05 | 65 | 1005.0 |
| 20260503182114 | 30 | 340 | 12.9 | 22.5 | 0.00 | 0.00 | 0.05 | 62 | 1005.0 |
| 20260503181200 | 29 | 28 | 20.9 | 25.7 | 0.00 | 0.00 | 0.05 | 64 | 1005.0 |
| 20260503180614 | 29 | 56 | 6.4 | 9.7 | 0.00 | 0.00 | 0.05 | 62 | 1006.0 |
| 20260503180114 | 28 | 46 | 6.4 | 8.0 | 0.00 | 0.00 | 0.05 | 65 | 1007.0 |
| 20260503175624 | 28 | 44 | 1.6 | 3.2 | 0.00 | 0.00 | 0.05 | 67 | 1007.0 |
| 20260503175114 | 28 | 44 | 0.0 | 1.6 | 0.00 | 0.00 | 0.05 | 66 | 1007.0 |
| 20260503174614 | 29 | 46 | 1.6 | 1.6 | 0.00 | 0.00 | 0.05 | 64 | 1007.0 |
| 20260503174114 | 28 | 29 | 6.4 | 8.0 | 0.00 | 0.00 | 0.05 | 63 | 1007.0 |
| 20260503173614 | 28 | 64 | 0.0 | 1.6 | 0.00 | 0.00 | 0.05 | 64 | 1007.0 |
| 20260503173114 | 28 | 78 | 1.6 | 3.2 | 0.00 | 0.00 | 0.05 | 64 | 1007.0 |
| 20260503172614 | 28 | 58 | 3.2 | 3.2 | 0.00 | 0.00 | 0.05 | 64 | 1006.0 |
| 20260503172114 | 28 | 50 | 8.0 | 9.7 | 0.00 | 0.00 | 0.05 | 65 | 1006.0 |
| 20260503171614 | 28 | 29 | 9.7 | 12.9 | 0.00 | 0.00 | 0.05 | 71 | 1007.0 |
| 20260503171114 | 27 | 37 | 8.0 | 11.3 | 0.00 | 0.00 | 0.05 | 75 | 1007.0 |
| 20260503170615 | 27 | 50 | 8.0 | 11.3 | 0.00 | 0.00 | 0.05 | 79 | 1007.0 |
| 20260503170115 | 27 | 49 | 1.6 | 3.2 | 0.00 | 0.00 | 0.05 | 79 | 1007.0 |
| 20260503160114 | 27 | 50 | 1.6 | 1.6 | 0.18 | 0.00 | 0.05 | 72 | 1006.0 |
| 20260503150614 | 29 | 76 | 0.0 | 1.6 | 0.00 | 0.00 | 0.00 | 66 | 1005.0 |
| 20260503150114 | 29 | 92 | 1.6 | 1.6 | 0.00 | 0.00 | 0.00 | 65 | 1005.0 |
| 20260503140114 | 28 | 83 | 12.9 | 20.9 | 0.00 | 0.00 | 0.00 | 74 | 1006.0 |
| 20260503131114 | 32 | 92 | 3.2 | 4.8 | 0.00 | 0.00 | 0.00 | 70 | 1004.0 |
| 20260503130614 | 32 | 40 | 4.8 | 4.8 | 0.00 | 0.00 | 0.00 | 70 | 1003.0 |
| 20260503130114 | 32 | 53 | 3.2 | 3.2 | 0.00 | 0.00 | 0.00 | 70 | 1003.0 |
| 20260503120114 | 34 | 68 | 6.4 | 9.7 | 0.00 | 0.00 | 0.00 | 65 | 1002.0 |
| 20260503110614 | 36 | 334 | 9.7 | 12.9 | 0.00 | 0.00 | 0.00 | 57 | 1001.0 |
| 20260503110114 | 37 | 42 | 6.4 | 8.0 | 0.00 | 0.00 | 0.00 | 57 | 1001.0 |